Location: Unspecified
(0.0000°N, 0.0000°E)
Time: 21:52:02
(UTC+00:00)

Tiros 1 - Pass Details

Date: 27 October 2021
Orbit: 630 x 664 km, 48.4° (Epoch: 04 December)

Event Time Altitude Azimuth Distance (km) Brightness Sun altitude
Rises 18:56:48 0° 283° (WNW) 2,907 11.6 -17.8°
Reaches altitude 10° 19:00:37 10° 251° (WSW) 2,000 10.9 -18.7°
Maximum altitude 19:02:18 12° 230° (SW) 1,880 10.4 -19.1°
Drops below altitude 10° 19:04:00 10° 208° (SSW) 2,001 10.2 -19.5°
Sets 19:07:50 0° 176° (S) 2,912 10.6 -20.4°
